When you browse on this site, cookies collect data to enhance your experience and personalize the content and advertising you see.
Visit our Privacy Policy to learn more. By continuing to use the site, you agree to this use of cookies and data.
  • In Netherlands
  • List of Countries
  • For 7 days
  • Water Temperature
  • Satellite Maps
  • Weather Map
  • Weather Widgets
  • user-avatar
    Login

    Hourly Weather Darłowo

    Today, 23 April, Tuesday

    Time Temperature Precipitation Wind Pressure Humidity
    00:00 +10°C° 0 mm 6 mps 766 mmHg 61%
    01:00 +10°C° 0 mm 5 mps 766 mmHg 60%
    02:00 +9°C° 0 mm 5 mps 766 mmHg 58%
    03:00 +9°C° 0 mm 6 mps 766 mmHg 56%
    04:00 +9°C° 0 mm 6 mps 765 mmHg 54%
    05:00 +10°C° 0 mm 6 mps 765 mmHg 51%
    06:00 +10°C° 0 mm 7 mps 765 mmHg 47%
    07:00 +12°C° 0 mm 7 mps 765 mmHg 43%
    08:00 +13°C° 0 mm 8 mps 765 mmHg 40%
    09:00 +15°C° 0 mm 9 mps 765 mmHg 36%
    10:00 +16°C° 0 mm 9 mps 765 mmHg 33%
    11:00 +17°C° 0 mm 9 mps 764 mmHg 33%
    12:00 +17°C° 0 mm 10 mps 764 mmHg 32%
    13:00 +18°C° 0 mm 10 mps 763 mmHg 32%
    14:00 +18°C° 0 mm 10 mps 763 mmHg 33%
    15:00 +18°C° 0 mm 10 mps 762 mmHg 35%
    16:00 +18°C° 0 mm 9 mps 762 mmHg 37%
    17:00 +17°C° 0 mm 9 mps 761 mmHg 40%
    18:00 +16°C° 0 mm 8 mps 761 mmHg 43%
    19:00 +15°C° 0 mm 7 mps 761 mmHg 46%
    20:00 +15°C° 0 mm 8 mps 761 mmHg 46%
    21:00 +13°C° 0 mm 8 mps 761 mmHg 45%
    22:00 +13°C° 0 mm 8 mps 761 mmHg 45%
    23:00 +13°C° 0 mm 8 mps 761 mmHg 46%

    Tomorrow, 24 April, Wednesday

    Time Temperature Precipitation Wind Pressure Humidity
    00:00 +12°C° 0 mm 8 mps 761 mmHg 48%
    01:00 +12°C° 0 mm 7 mps 760 mmHg 50%
    02:00 +11°C° 0 mm 8 mps 760 mmHg 51%
    03:00 +11°C° 0 mm 8 mps 760 mmHg 52%
    04:00 +11°C° 0 mm 8 mps 760 mmHg 53%
    05:00 +11°C° 0 mm 8 mps 759 mmHg 53%
    06:00 +12°C° 0 mm 8 mps 759 mmHg 53%
    07:00 +12°C° 0 mm 8 mps 759 mmHg 54%
    08:00 +13°C° 0 mm 8 mps 759 mmHg 52%
    09:00 +16°C° 0 mm 8 mps 759 mmHg 50%
    10:00 +17°C° 0 mm 8 mps 759 mmHg 49%
    11:00 +18°C° 0 mm 8 mps 759 mmHg 48%
    12:00 +20°C° 0 mm 8 mps 759 mmHg 47%
    13:00 +21°C° 0 mm 8 mps 759 mmHg 46%
    14:00 +21°C° 0 mm 7 mps 759 mmHg 47%
    15:00 +21°C° 0 mm 7 mps 759 mmHg 49%
    16:00 +20°C° 0 mm 7 mps 759 mmHg 51%
    17:00 +19°C° 0 mm 6 mps 759 mmHg 55%
    18:00 +17°C° 0 mm 5 mps 759 mmHg 59%
    19:00 +16°C° 0 mm 5 mps 759 mmHg 63%
    20:00 +16°C° 0 mm 5 mps 759 mmHg 66%
    21:00 +15°C° 0 mm 5 mps 759 mmHg 69%
    22:00 +14°C° 0 mm 5 mps 759 mmHg 71%
    23:00 +14°C° 0 mm 5 mps 759 mmHg 73%

    Day after tomorrow, 25 April, Thursday

    Time Temperature Precipitation Wind Pressure Humidity
    00:00 +14°C° 0 mm 5 mps 759 mmHg 74%
    01:00 +13°C° 0 mm 5 mps 759 mmHg 75%
    02:00 +13°C° 0 mm 5 mps 759 mmHg 76%
    03:00 +13°C° 0 mm 5 mps 759 mmHg 78%
    04:00 +12°C° 0 mm 5 mps 759 mmHg 80%
    05:00 +13°C° 0 mm 5 mps 759 mmHg 78%
    06:00 +14°C° 0 mm 5 mps 759 mmHg 76%
    07:00 +15°C° 0 mm 5 mps 759 mmHg 74%
    08:00 +17°C° 0 mm 4 mps 759 mmHg 69%
    09:00 +19°C° 0 mm 3 mps 760 mmHg 63%
    10:00 +21°C° 0 mm 3 mps 760 mmHg 58%
    11:00 +22°C° 0 mm 3 mps 760 mmHg 56%
    12:00 +24°C° 0 mm 3 mps 760 mmHg 53%
    13:00 +25°C° 0 mm 2 mps 760 mmHg 50%
    14:00 +22°C° 0.6 mm 3 mps 760 mmHg 57%
    15:00 +21°C° 0.6 mm 4 mps 760 mmHg 64%
    16:00 +19°C° 0.6 mm 4 mps 760 mmHg 71%
    17:00 +18°C° 0.3 mm 3 mps 760 mmHg 76%
    18:00 +17°C° 0.3 mm 2 mps 760 mmHg 80%
    19:00 +16°C° 0.3 mm 2 mps 760 mmHg 85%
    20:00 +15°C° 0 mm 2 mps 760 mmHg 86%
    21:00 +15°C° 0 mm 2 mps 760 mmHg 86%
    22:00 +15°C° 0 mm 2 mps 761 mmHg 86%
    23:00 +15°C° 0 mm 2 mps 760 mmHg 87%

    26 April, Friday

    Time Temperature Precipitation Wind Pressure Humidity
    00:00 +15°C° 0 mm 2 mps 760 mmHg 87%
    01:00 +15°C° 0 mm 2 mps 760 mmHg 88%
    02:00 +15°C° 0 mm 2 mps 760 mmHg 88%
    03:00 +15°C° 0 mm 2 mps 760 mmHg 89%
    04:00 +14°C° 0 mm 2 mps 759 mmHg 89%
    05:00 +16°C° 0 mm 3 mps 759 mmHg 85%
    06:00 +17°C° 0 mm 3 mps 759 mmHg 80%
    07:00 +18°C° 0 mm 4 mps 758 mmHg 76%
    08:00 +20°C° 0 mm 3 mps 758 mmHg 69%
    09:00 +21°C° 0 mm 3 mps 758 mmHg 62%
    10:00 +24°C° 0 mm 3 mps 758 mmHg 54%
    11:00 +25°C° 0 mm 3 mps 757 mmHg 51%
    12:00 +26°C° 0 mm 3 mps 757 mmHg 48%
    13:00 +27°C° 0 mm 3 mps 757 mmHg 45%
    14:00 +27°C° 0.1 mm 3 mps 756 mmHg 45%
    15:00 +27°C° 0.1 mm 4 mps 756 mmHg 46%
    16:00 +27°C° 0.1 mm 4 mps 756 mmHg 46%
    17:00 +25°C° 0.2 mm 4 mps 755 mmHg 51%
    18:00 +23°C° 0.2 mm 4 mps 755 mmHg 56%
    19:00 +21°C° 0.2 mm 4 mps 755 mmHg 62%
    20:00 +20°C° 0.8 mm 4 mps 755 mmHg 68%
    21:00 +19°C° 0.8 mm 3 mps 755 mmHg 74%
    22:00 +18°C° 0.8 mm 3 mps 755 mmHg 81%
    23:00 +17°C° 0.4 mm 3 mps 755 mmHg 84%

    27 April, Saturday

    Time Temperature Precipitation Wind Pressure Humidity
    00:00 +16°C° 0.4 mm 3 mps 755 mmHg 88%
    01:00 +14°C° 0.4 mm 3 mps 755 mmHg 91%
    02:00 +13°C° 1.2 mm 4 mps 755 mmHg 92%
    03:00 +13°C° 1.2 mm 5 mps 755 mmHg 94%
    04:00 +11°C° 1.2 mm 6 mps 755 mmHg 95%
    05:00 +10°C° 1 mm 6 mps 754 mmHg 95%
    06:00 +10°C° 1 mm 5 mps 754 mmHg 94%
    07:00 +10°C° 1 mm 5 mps 754 mmHg 94%
    08:00 +10°C° 0.4 mm 5 mps 755 mmHg 93%
    09:00 +10°C° 0.4 mm 6 mps 755 mmHg 92%
    10:00 +10°C° 0.4 mm 6 mps 755 mmHg 91%
    11:00 +10°C° 0 mm 7 mps 755 mmHg 90%
    12:00 +10°C° 0 mm 8 mps 755 mmHg 89%
    13:00 +8°C° 0 mm 9 mps 755 mmHg 89%
    14:00 +8°C° 0.2 mm 9 mps 755 mmHg 88%
    15:00 +8°C° 0.2 mm 9 mps 756 mmHg 87%
    16:00 +7°C° 0.2 mm 9 mps 756 mmHg 86%
    17:00 +7°C° 0.3 mm 10 mps 756 mmHg 85%
    18:00 +7°C° 0.3 mm 10 mps 756 mmHg 84%
    19:00 +7°C° 0.3 mm 10 mps 756 mmHg 84%
    20:00 +7°C° 0 mm 9 mps 756 mmHg 85%
    21:00 +6°C° 0 mm 9 mps 757 mmHg 87%
    22:00 +6°C° 0 mm 8 mps 757 mmHg 88%
    23:00 +6°C° 0 mm 8 mps 757 mmHg 90%

    28 April, Sunday

    Time Temperature Precipitation Wind Pressure Humidity
    00:00 +6°C° 0 mm 8 mps 757 mmHg 91%
    01:00 +6°C° 0 mm 7 mps 757 mmHg 93%
    02:00 +8°C° 0.1 mm 7 mps 757 mmHg 93%
    03:00 +8°C° 0.1 mm 7 mps 757 mmHg 93%
    04:00 +7°C° 0.1 mm 8 mps 757 mmHg 93%
    05:00 +7°C° 0.2 mm 8 mps 757 mmHg 93%
    06:00 +7°C° 0.2 mm 8 mps 758 mmHg 92%
    07:00 +7°C° 0.2 mm 8 mps 758 mmHg 92%
    08:00 +7°C° 0.1 mm 8 mps 758 mmHg 89%
    09:00 +9°C° 0.1 mm 8 mps 758 mmHg 86%
    10:00 +10°C° 0.1 mm 8 mps 759 mmHg 83%
    11:00 +10°C° 0 mm 8 mps 759 mmHg 82%
    12:00 +10°C° 0 mm 7 mps 759 mmHg 82%
    13:00 +10°C° 0 mm 7 mps 759 mmHg 81%
    14:00 +10°C° 0 mm 6 mps 760 mmHg 81%
    15:00 +10°C° 0 mm 6 mps 760 mmHg 82%
    16:00 +10°C° 0 mm 5 mps 760 mmHg 82%
    17:00 +9°C° 0 mm 5 mps 760 mmHg 83%
    18:00 +10°C° 0 mm 4 mps 761 mmHg 85%
    19:00 +10°C° 0 mm 3 mps 761 mmHg 86%
    20:00 +9°C° 0 mm 3 mps 761 mmHg 88%
    21:00 +8°C° 0 mm 3 mps 762 mmHg 90%
    22:00 +8°C° 0 mm 3 mps 762 mmHg 93%
    23:00 +7°C° 0 mm 3 mps 762 mmHg 93%
    Show more